Wind_Speed
36 37 34 32 35 37 37 37 35 29 31 35 36 34 33 32 31 29 25 19 17 17 20 22 22 21 21 22 24 25 25 28 28 27 27 28 27 26 26 28 30 32 34 36
38 36 30 34 39 40 40 41 38 31 34 39 39 38 36 33 32 28 23 20 17 19 22 24 24 25 25 26 28 30 32 33 33 31 31 33 33 31 30 31 34 36 38 40
36 32 32 37 40 42 42 40 36 32 36 41 42 42 39 37 34 29 23 19 17 20 24 27 27 28 29 29 32 35 36 37 37 37 36 37 38 37 36 38 40 41 43 45
35 30 32 36 39 41 40 36 35 34 37 42 45 46 43 40 35 28 22 20 21 24 27 29 30 31 32 33 36 38 39 40 41 42 42 41 42 42 41 41 44 46 49 52
32 26 30 35 35 37 36 34 37 37 40 44 46 48 46 42 36 27 23 24 27 30 31 31 32 34 35 37 39 41 41 42 44 44 42 42 43 42 42 43 46 50 54 57
34 30 32 33 33 36 35 35 38 40 42 45 45 48 49 44 37 32 30 30 32 33 32 32 34 36 38 39 41 42 43 45 46 46 44 43 42 42 43 46 50 55 59 60
31 30 30 32 33 34 36 36 37 40 42 45 41 46 47 43 38 35 34 36 37 38 39 38 38 38 39 39 41 43 45 47 49 49 47 45 44 44 45 48 54 58 61 61
32 31 27 29 30 30 33 35 36 39 41 42 41 44 40 38 36 35 37 40 41 42 42 40 38 37 38 39 41 44 46 50 52 52 52 49 45 44 46 50 57 61 61 59
34 33 28 27 27 28 30 34 35 38 40 43 42 40 38 34 33 33 34 35 36 36 35 34 33 34 36 39 42 46 50 54 56 56 58 53 46 45 48 52 58 61 60 57
34 32 27 26 27 28 31 33 37 39 40 43 42 40 36 32 30 29 29 30 32 33 33 35 37 37 39 43 47 52 56 59 59 59 57 49 43 46 49 54 57 57 56 57
34 33 27 26 25 25 27 33 37 39 41 43 44 41 34 32 30 30 29 28 28 31 35 37 38 39 42 46 49 53 57 58 57 51 44 41 43 48 51 54 54 55 56 57
38 36 32 29 30 28 29 31 34 39 40 41 45 42 37 35 33 33 32 31 31 33 36 37 40 43 45 48 48 48 48 47 45 42 41 44 47 49 51 53 54 55 56 54
40 39 37 34 33 32 31 32 34 37 39 40 43 42 37 34 32 32 32 33 35 38 40 42 43 44 45 46 44 42 41 41 42 45 48 49 49 50 52 53 53 54 52 48
43 42 40 38 36 35 34 35 36 37 38 41 43 44 41 38 36 35 36 37 39 41 41 41 42 43 43 44 42 40 42 45 48 50 51 50 49 50 50 50 51 49 46 44
51 48 46 44 43 42 39 37 37 39 40 41 43 44 43 42 41 41 41 41 42 42 40 40 42 44 46 46 45 49 51 52 51 50 49 47 47 47 47 48 47 44 44 43
53 56 55 53 50 50 47 45 42 41 41 43 45 45 44 44 44 45 46 46 44 43 44 46 48 50 53 54 55 56 54 51 47 46 45 45 45 46 46 45 44 43 43 45
51 56 59 60 59 58 55 52 50 49 48 49 48 47 47 47 48 49 49 48 47 49 51 53 57 58 57 55 54 51 47 44 43 44 44 44 44 44 43 42 43 44 45 48
43 50 56 60 61 62 60 58 58 58 58 59 59 57 56 55 55 56 55 54 53 55 57 59 60 58 55 52 48 44 43 42 43 42 43 44 43 41 41 43 44 46 49 51
38 41 45 50 55 57 56 56 57 58 58 59 59 59 59 58 59 59 58 57 57 58 58 56 55 52 49 45 42 40 40 40 41 43 43 42 41 41 42 44 46 49 50 52
39 42 44 46 49 51 51 52 53 53 53 51 51 52 52 54 55 54 53 53 52 50 49 48 47 46 42 38 35 35 36 38 41 41 41 40 40 41 43 46 48 49 51 51
33 36 39 42 46 48 49 49 50 48 46 46 46 46 46 47 47 45 44 42 40 39 39 39 37 34 30 29 30 32 35 38 39 39 38 38 39 42 44 46 47 49 49 49
28 29 31 33 35 36 38 40 41 40 37 34 34 36 37 37 35 33 31 30 28 30 33 32 27 25 25 26 29 32 34 35 36 36 36 38 40 42 44 45 46 46 45 45
29 30 30 30 30 30 31 31 31 30 26 24 25 27 29 30 29 27 23 21 23 25 24 22 21 22 24 26 28 30 31 32 32 32 35 38 41 42 43 43 43 42 42 42
33 33 33 31 29 29 29 29 28 27 25 23 23 23 24 26 26 24 22 20 21 21 21 21 20 21 23 25 27 27 27 27 29 32 36 38 40 40 40 39 39 39 40 40
33 34 31 27 25 25 25 26 25 24 22 21 21 20 20 21 22 21 20 19 19 18 18 18 19 20 22 23 22 22 23 26 29 33 36 37 38 37 37 37 38 38 38 37
22 22 20 20 21 20 19 18 17 16 17 17 18 20 21 20 20 19 19 19 17 14 15 16 17 18 18 17 16 19 23 27 31 34 35 35 35 36 36 37 38 37 36 35
Wind_Direction
243 244 245 247 247 247 247 250 249 246 245 247 248 251 253 259 266 273 273 272 285 297 306 311 307 308 316 321 324 319 322 325 324 326 331 333 331 326 322 322 324 323 320 316
245 245 246 245 246 246 247 250 251 247 243 246 247 249 254 259 267 271 264 260 269 286 299 304 306 308 311 314 317 315 315 316 318 320 322 328 330 328 325 326 327 325 323 320
248 246 241 241 244 247 249 251 252 245 239 245 248 250 253 257 262 263 261 264 270 281 290 295 300 305 306 307 310 312 311 313 315 317 319 323 327 326 324 325 326 325 322 321
248 247 247 246 246 249 250 251 249 242 237 238 245 249 253 259 261 261 261 267 272 277 283 289 293 298 300 302 305 306 306 308 310 312 315 318 321 322 322 323 324 323 321 320
250 250 248 248 248 250 250 246 245 241 238 240 243 250 255 257 258 259 259 262 266 272 280 285 288 292 295 298 299 299 300 301 303 305 310 315 317 319 320 321 320 321 321 320
249 248 250 250 248 247 246 242 244 245 245 245 246 250 254 256 258 259 258 261 265 271 277 281 284 289 293 295 294 293 293 295 297 298 303 310 313 315 316 316 317 317 319 319
253 252 255 256 253 249 248 245 246 247 249 251 250 252 254 255 257 262 266 267 268 270 272 278 283 287 290 290 288 287 289 291 292 292 296 303 307 309 311 312 314 315 316 316
244 242 248 256 258 255 250 247 245 249 252 255 253 253 254 256 259 264 270 271 270 270 273 277 281 284 285 284 284 286 288 288 289 290 291 295 300 302 306 309 312 313 313 312
251 245 238 244 248 247 245 244 247 250 254 257 256 258 257 257 262 269 276 275 272 272 274 276 279 282 283 283 285 286 286 284 285 286 286 288 293 299 304 308 310 311 311 310
257 253 238 235 239 242 244 242 241 246 254 259 262 260 259 262 268 274 278 277 274 272 271 274 280 283 283 283 285 286 283 280 280 282 285 288 294 300 304 306 308 308 308 310
256 256 243 229 234 240 242 242 243 247 253 259 263 263 266 270 274 277 276 274 275 274 275 280 285 286 285 287 289 292 292 286 283 285 288 293 299 303 305 306 307 308 309 311
254 256 255 245 240 241 245 246 246 249 253 257 261 264 268 272 275 276 275 272 275 281 285 289 292 293 294 295 295 298 305 303 299 299 303 307 307 307 307 307 307 309 310 311
254 257 258 257 251 245 243 244 245 249 254 257 261 265 268 272 275 276 275 276 281 287 291 292 294 294 295 295 294 300 311 315 315 315 314 313 311 309 307 307 308 310 311 310
250 254 257 257 256 254 250 248 247 249 253 258 261 267 270 271 273 274 275 279 285 291 293 291 292 294 298 300 302 310 316 317 316 314 313 311 308 306 306 307 309 309 308 307
246 249 253 256 256 256 256 254 253 253 255 259 263 266 268 270 273 274 276 279 284 288 289 290 295 298 301 302 307 311 314 314 314 312 310 308 307 307 308 308 308 306 306 309
246 247 250 251 253 255 256 257 257 259 261 263 263 262 264 268 271 273 274 276 280 283 288 293 297 299 301 304 306 308 310 312 312 311 309 308 308 309 309 308 307 307 310 314
247 247 249 251 252 254 255 257 259 261 264 266 268 267 267 269 273 276 277 276 278 282 288 293 297 300 301 303 305 307 309 309 309 309 308 310 311 311 310 309 309 312 315 316
256 251 251 252 254 255 259 259 260 262 265 267 267 268 270 272 275 278 281 283 284 286 289 292 296 299 299 300 302 304 305 306 307 309 312 313 313 311 310 312 314 315 317 317
259 258 256 256 257 259 260 262 262 262 263 264 265 267 269 272 274 276 279 281 282 285 288 291 293 294 294 296 299 301 303 305 308 312 314 314 313 312 314 315 316 318 318 316
260 259 259 259 260 261 261 261 262 263 264 264 265 266 267 269 270 273 274 276 279 282 285 285 284 283 285 291 297 300 303 307 311 312 312 312 313 315 316 317 318 318 317 315
261 259 259 258 260 261 263 265 265 265 266 266 266 266 266 267 269 270 273 275 278 278 275 273 272 275 283 291 296 301 306 310 311 311 311 312 314 316 318 320 320 319 319 320
267 265 263 261 261 262 262 264 266 268 268 267 265 264 262 263 265 267 271 274 273 266 261 265 274 283 289 296 302 307 310 311 311 311 312 313 317 321 322 322 322 323 325 326
270 269 267 265 264 264 264 265 267 269 268 264 260 260 259 257 258 262 266 269 262 262 269 274 279 287 297 304 308 310 311 310 310 311 314 318 323 324 325 326 327 329 331 332
271 269 266 263 261 262 264 266 267 267 264 261 260 262 261 256 257 261 267 272 269 268 270 276 286 298 304 308 309 311 311 310 312 316 321 324 326 327 328 331 334 335 336 335
272 267 262 256 252 255 263 266 265 263 258 255 254 253 252 253 258 260 259 257 255 259 272 286 298 304 306 309 312 312 311 314 320 324 326 328 329 330 332 335 339 339 337 337
271 267 259 249 249 255 262 262 258 252 246 241 236 231 234 244 251 246 238 239 250 270 287 296 301 304 311 316 315 315 319 324 328 329 329 330 331 333 335 337 339 340 340 341
Height
5828 5832 5836 5840 5840 5840 5841 5842 5845 5850 5848 5845 5845 5846 5846 5847 5848 5849 5850 5852 5853 5852 5850 5849 5846 5845 5844 5843 5842 5841 5840 5839 5838 5835 5832 5828 5824 5821 5817 5814 5810 5806 5802 5798
5821 5825 5831 5831 5830 5832 5834 5835 5839 5844 5841 5837 5838 5839 5840 5842 5843 5844 5845 5845 5846 5846 5845 5843 5842 5840 5839 5838 5838 5836 5834 5833 5831 5828 5825 5821 5818 5814 5810 5806 5801 5797 5793 5789
5813 5818 5820 5821 5822 5824 5826 5829 5833 5836 5834 5830 5831 5831 5833 5836 5837 5839 5839 5840 5840 5841 5840 5838 5837 5836 5834 5833 5832 5829 5827 5824 5821 5819 5816 5812 5809 5805 5801 5796 5791 5787 5782 5777
5804 5809 5811 5812 5814 5816 5819 5823 5825 5827 5826 5825 5824 5823 5827 5829 5831 5832 5833 5834 5835 5835 5835 5833 5832 5830 5828 5827 5825 5822 5819 5816 5814 5811 5808 5804 5800 5796 5791 5786 5782 5777 5772 5766
5799 5803 5803 5803 5807 5809 5812 5815 5814 5816 5817 5817 5817 5816 5819 5822 5824 5826 5827 5829 5830 5830 5829 5827 5826 5824 5823 5821 5818 5815 5812 5810 5807 5803 5799 5795 5791 5786 5781 5776 5771 5766 5760 5753
5792 5795 5796 5797 5800 5801 5803 5805 5806 5807 5809 5809 5813 5811 5811 5815 5818 5819 5820 5822 5823 5823 5822 5820 5818 5817 5816 5814 5811 5808 5804 5801 5797 5793 5789 5785 5781 5776 5771 5766 5760 5754 5747 5740
5787 5789 5790 5791 5793 5795 5796 5798 5799 5799 5800 5802 5806 5804 5805 5809 5812 5813 5814 5814 5814 5814 5814 5813 5812 5811 5809 5806 5802 5799 5795 5791 5787 5783 5780 5776 5772 5766 5761 5756 5750 5742 5734 5727
5778 5781 5785 5785 5787 5790 5790 5790 5792 5793 5793 5794 5797 5796 5801 5803 5805 5806 5806 5806 5805 5805 5805 5805 5804 5802 5799 5796 5792 5789 5785 5782 5777 5773 5769 5766 5762 5757 5751 5745 5739 5731 5723 5716
5771 5775 5779 5778 5779 5781 5782 5783 5786 5786 5786 5786 5788 5791 5794 5798 5799 5800 5799 5797 5796 5795 5795 5795 5794 5792 5789 5786 5783 5779 5776 5772 5767 5763 5759 5755 5751 5745 5739 5733 5726 5719 5712 5704
5764 5768 5773 5773 5773 5774 5776 5778 5779 5779 5779 5778 5780 5784 5789 5793 5793 5793 5791 5789 5788 5787 5787 5786 5785 5783 5781 5778 5774 5770 5765 5760 5755 5751 5747 5743 5740 5735 5728 5721 5715 5708 5701 5693
5758 5761 5766 5768 5768 5769 5770 5771 5772 5773 5774 5773 5772 5779 5783 5785 5786 5785 5784 5782 5781 5779 5779 5779 5778 5776 5773 5770 5765 5760 5754 5748 5744 5741 5738 5734 5731 5725 5718 5711 5704 5697 5689 5681
5751 5755 5758 5762 5763 5764 5764 5764 5766 5767 5767 5768 5766 5773 5774 5777 5777 5777 5776 5776 5774 5774 5773 5772 5770 5767 5763 5759 5754 5750 5746 5742 5738 5734 5730 5726 5721 5715 5708 5700 5693 5685 5677 5669
5744 5747 5750 5754 5758 5758 5758 5758 5759 5761 5762 5761 5761 5766 5768 5769 5769 5769 5768 5768 5767 5766 5765 5762 5759 5756 5753 5748 5743 5740 5737 5734 5730 5726 5721 5716 5709 5703 5695 5688 5680 5672 5665 5657
5737 5738 5742 5746 5747 5749 5751 5752 5752 5754 5755 5755 5756 5758 5760 5762 5762 5761 5761 5760 5759 5758 5755 5752 5749 5747 5743 5739 5734 5731 5728 5724 5721 5716 5709 5703 5696 5689 5682 5675 5668 5660 5653 5645
5729 5730 5732 5734 5737 5740 5742 5744 5745 5746 5747 5749 5750 5751 5753 5754 5754 5754 5753 5752 5751 5749 5747 5743 5740 5737 5734 5730 5726 5723 5719 5715 5710 5704 5697 5690 5684 5677 5671 5664 5657 5650 5642 5634
5718 5720 5722 5724 5726 5729 5732 5736 5737 5738 5739 5740 5741 5743 5744 5744 5745 5745 5745 5744 5742 5740 5737 5734 5731 5728 5725 5722 5718 5714 5709 5703 5697 5692 5686 5680 5673 5666 5660 5654 5647 5640 5631 5622
5706 5708 5710 5712 5714 5716 5722 5727 5729 5730 5731 5732 5732 5734 5734 5735 5735 5735 5735 5735 5734 5730 5727 5724 5722 5719 5716 5712 5707 5703 5698 5692 5687 5682 5676 5670 5663 5656 5650 5644 5637 5629 5620 5611
5695 5697 5698 5700 5703 5706 5714 5715 5718 5719 5720 5721 5721 5722 5724 5724 5725 5724 5724 5724 5723 5720 5717 5714 5712 5709 5705 5702 5697 5693 5689 5683 5678 5672 5666 5659 5653 5647 5641 5634 5626 5618 5609 5599
5686 5687 5688 5690 5690 5694 5700 5701 5702 5704 5706 5707 5708 5710 5711 5712 5711 5712 5712 5712 5711 5709 5706 5704 5702 5699 5695 5692 5689 5685 5680 5674 5669 5663 5657 5651 5645 5639 5632 5624 5616 5607 5598 5589
5677 5678 5679 5680 5680 5682 5686 5687 5688 5690 5692 5694 5695 5697 5698 5698 5700 5701 5700 5700 5700 5699 5697 5695 5692 5689 5687 5684 5681 5677 5671 5666 5661 5655 5649 5643 5636 5630 5623 5615 5606 5596 5588 5579
5667 5667 5668 5669 5669 5670 5672 5673 5674 5678 5680 5680 5682 5684 5686 5687 5688 5688 5689 5690 5691 5690 5689 5686 5684 5681 5679 5677 5673 5669 5664 5659 5654 5648 5641 5635 5629 5622 5613 5605 5596 5587 5578 5568
5658 5658 5659 5659 5660 5662 5660 5661 5662 5664 5666 5668 5670 5671 5673 5675 5677 5678 5680 5681 5682 5681 5680 5678 5676 5675 5673 5670 5667 5663 5658 5652 5647 5641 5634 5628 5621 5613 5604 5595 5586 5578 5569 5559
5650 5651 5650 5651 5653 5651 5651 5651 5653 5654 5657 5659 5661 5662 5664 5667 5669 5671 5673 5674 5675 5675 5674 5673 5672 5670 5667 5664 5660 5656 5650 5645 5640 5634 5628 5621 5613 5604 5596 5588 5579 5570 5561 5552
5641 5640 5640 5641 5643 5643 5643 5644 5645 5646 5649 5651 5653 5655 5657 5659 5662 5664 5667 5668 5669 5669 5669 5669 5667 5664 5661 5658 5654 5649 5644 5640 5635 5629 5622 5614 5606 5597 5590 5581 5573 5564 5555 5546
5629 5628 5629 5631 5634 5635 5637 5637 5638 5640 5642 5644 5647 5649 5651 5653 5656 5658 5660 5662 5663 5664 5664 5664 5662 5659 5656 5652 5647 5643 5640 5636 5630 5623 5615 5607 5599 5592 5584 5576 5567 5559 5550 5542
5620 5620 5622 5624 5626 5628 5630 5631 5633 5635 5637 5639 5642 5644 5646 5648 5651 5653 5655 5657 5658 5659 5659 5659 5657 5654 5650 5646 5644 5641 5636 5631 5624 5617 5610 5602 5595 5587 5578 5570 5562 5554 5546 5538